View from above orbital plane
|
View from above satellite
|
Ground track
|
The orbit data is extracted from the following two-line orbital elements,
1 39228U 13042B 21017.15154535 -.00000111 00000-0 -14769-4 0 9990
2 39228 97.5256 160.0329 0456810 213.4893 143.6618 14.06308868380032
Epoch (UTC): | 17 January 2021 03:38:13 |
Eccentricity: | 0.0456810 |
inclination: | 97.5256° |
perigee height: | 541 km |
apogee height: | 1203 km |
right ascension of ascending node: | 160.0329° |
argument of perigee: | 213.4893° |
revolutions per day: | 14.06308868 |
mean anomaly at epoch: | 143.6618° |
orbit number at epoch: | 38003 |
The dashed part of the orbit path shows where the satellite is in the earth's shadow,
|
|